Wind_Speed
10 10 10 9 8 8 7 7 7 6 6 5 4 4 3 3 2 1 1 2 3 5 6 6 7 7 7 7 8 9 10 10 10 11 10 10 10 10 10 9 9 8 8 8 7 7 7 6 6
10 10 9 9 8 7 7 7 6 5 6 5 5 4 3 3 3 2 2 3 4 5 6 7 7 7 8 8 9 9 9 9 10 10 9 9 9 9 9 8 8 7 7 7 7 7 6 6 6
10 10 9 9 8 6 7 7 6 6 6 6 5 5 4 4 4 3 3 3 4 6 7 8 8 8 9 9 9 9 9 9 9 9 9 9 8 8 8 7 7 6 6 6 6 6 6 5 5
10 10 9 9 8 8 8 7 7 7 7 7 6 6 5 5 5 4 4 4 5 6 7 8 9 9 10 10 10 10 10 10 9 9 8 8 8 7 7 7 6 6 5 5 5 5 5 5 5
11 10 9 9 9 9 8 7 7 8 8 8 7 7 6 6 5 5 5 5 6 7 8 9 10 11 11 12 12 11 10 10 9 9 8 8 7 7 6 6 5 5 5 4 4 4 4 4 5
11 10 9 8 9 9 9 8 8 8 8 7 7 7 7 6 6 6 5 6 6 8 9 10 11 12 13 13 13 12 11 10 10 9 8 8 7 6 6 5 5 4 4 4 4 3 4 4 5
11 10 9 9 10 10 9 8 8 9 9 8 8 8 8 7 7 6 6 6 7 8 11 12 12 12 14 14 14 13 12 11 10 9 9 8 7 6 5 5 4 4 4 3 3 3 3 4 5
11 11 10 10 9 10 9 9 9 9 9 9 9 9 9 8 8 8 8 7 8 9 11 13 13 14 14 15 15 14 12 12 11 10 9 8 7 6 5 5 4 4 3 3 3 3 3 4 5
12 11 10 10 9 10 10 9 9 9 10 11 11 10 10 10 9 9 8 8 8 9 11 13 13 15 16 16 16 15 14 13 12 11 10 8 7 6 6 5 4 4 4 4 4 4 4 4 5
13 12 12 11 10 10 10 10 10 10 11 12 12 11 11 10 10 9 9 8 9 10 12 13 14 17 17 17 17 17 15 14 12 11 10 9 8 7 7 6 5 4 4 4 4 5 5 5 5
13 13 13 11 11 10 10 10 10 10 11 12 12 12 12 11 10 10 10 9 10 11 12 13 15 18 19 19 18 18 17 15 14 12 11 9 8 8 7 6 6 4 4 4 5 5 5 5 5
14 13 13 12 11 11 11 11 10 11 11 12 12 12 12 12 12 11 11 11 10 12 13 14 15 18 19 19 19 19 18 17 16 14 12 10 9 8 7 7 6 5 5 4 5 5 5 5 5
14 14 14 13 12 12 11 11 11 11 12 13 13 13 13 13 13 12 11 11 11 13 14 14 15 18 19 19 19 20 20 18 17 15 13 11 10 9 8 8 7 6 6 5 5 5 5 6 6
15 14 14 14 14 13 12 12 12 13 13 14 14 14 14 13 13 13 12 12 12 13 14 15 16 17 19 20 20 21 21 20 17 16 14 12 10 9 9 9 8 8 7 6 6 6 6 6 6
15 15 15 15 15 14 13 13 13 14 14 15 15 15 14 14 13 13 13 13 12 13 15 16 17 18 19 20 21 21 22 21 19 17 15 14 12 10 10 8 8 8 7 7 6 6 6 6 5
16 15 15 17 16 15 14 13 15 15 15 15 15 15 14 14 13 13 13 13 13 13 15 16 17 19 20 21 22 22 22 21 19 17 16 15 13 11 10 9 8 8 7 6 6 6 6 6 5
16 15 15 17 17 16 14 13 15 14 14 14 15 15 15 14 13 13 13 12 12 14 15 16 17 20 21 21 22 23 22 21 19 18 16 15 13 12 10 10 9 8 7 7 6 6 5 5 5
17 16 16 17 17 16 15 14 15 14 13 13 13 14 14 14 14 14 13 12 12 14 16 16 18 20 20 21 22 23 22 21 20 18 16 15 14 13 11 10 10 9 8 7 6 6 6 5 4
18 17 16 17 17 15 15 15 15 15 15 14 14 13 13 14 15 14 13 12 13 14 15 16 18 19 19 19 21 22 22 21 20 19 17 16 15 13 12 11 11 10 9 8 7 7 6 5 4
17 17 17 17 17 16 14 14 14 15 15 14 14 13 13 14 14 14 12 13 13 14 15 16 17 19 19 19 20 22 21 20 19 19 18 17 15 14 13 12 12 11 10 8 8 7 6 5 4
17 17 17 17 16 15 14 12 14 15 15 14 13 13 13 14 14 13 11 11 12 12 14 15 16 18 19 20 20 22 21 19 19 18 18 17 16 15 14 13 13 12 10 9 9 8 7 6 5
17 17 17 16 15 15 14 12 15 15 15 13 13 13 13 13 12 11 10 11 11 12 12 15 16 17 18 19 19 20 20 20 20 18 18 17 17 16 15 14 13 12 11 10 9 8 8 7 5
18 17 16 15 15 14 14 13 13 15 14 13 13 13 12 12 11 10 9 9 10 11 11 12 15 16 18 19 19 19 20 20 21 20 19 18 17 17 16 15 14 13 12 11 10 9 8 7 6
18 16 15 15 14 13 14 13 11 13 13 13 13 12 12 11 10 9 9 8 8 9 10 11 13 16 17 18 18 19 19 20 21 20 20 19 18 17 16 16 15 14 13 12 11 10 9 8 6
17 15 13 13 13 13 15 13 11 12 12 12 12 11 11 10 9 9 9 8 8 9 10 11 12 15 17 18 18 19 19 20 20 20 20 19 18 18 17 16 15 14 14 13 12 11 9 8 7
17 16 14 13 12 13 15 12 11 12 12 11 11 10 10 9 8 8 8 8 8 9 9 10 12 15 15 17 18 19 19 20 20 20 20 20 19 18 18 17 16 15 15 14 13 12 10 8 7
18 17 16 16 14 13 13 13 12 12 12 11 11 11 10 9 8 8 8 9 8 8 8 9 11 14 15 16 18 19 19 20 20 20 21 20 20 19 18 18 17 16 15 14 13 12 11 9 8
19 18 18 17 15 13 13 13 12 13 12 11 11 11 11 10 9 9 9 9 8 8 8 8 9 11 14 15 17 19 19 19 20 19 19 19 20 19 18 18 17 16 15 15 14 13 12 11 10
19 19 19 18 17 15 13 13 15 13 12 12 12 12 11 10 9 9 10 10 9 8 8 8 8 11 13 15 16 18 18 19 19 19 19 19 19 19 18 18 18 17 16 15 15 14 13 12 11
19 19 19 19 18 18 16 15 17 14 14 14 13 13 12 11 10 10 10 10 10 9 9 9 9 11 12 14 16 17 18 18 19 19 19 19 18 19 18 18 18 17 17 16 15 14 14 14 14
Wind_Direction
2 3 4 6 8 14 5 356 354 357 2 2 359 358 356 8 6 312 258 207 189 191 178 169 168 169 171 169 163 155 147 140 133 128 123 118 113 109 108 107 107 106 104 104 105 107 103 102 101
353 355 357 359 4 3 350 349 350 351 349 349 345 342 333 326 329 306 259 221 203 196 192 185 180 181 180 178 171 163 154 147 140 136 130 124 119 115 113 110 111 109 106 104 105 109 111 111 109
345 347 347 350 353 343 332 338 339 339 338 335 330 328 324 314 310 296 270 238 213 206 201 196 194 193 189 186 179 170 162 155 148 143 139 134 127 122 117 114 115 114 111 107 107 112 113 115 116
333 336 338 340 336 330 327 330 334 332 328 326 321 316 317 311 309 305 281 252 224 213 209 205 203 202 197 193 188 179 172 165 157 151 147 143 136 131 125 120 118 118 114 110 110 115 117 118 128
324 327 331 329 327 324 322 325 326 327 327 324 321 313 314 310 307 301 282 262 237 222 218 209 206 206 202 198 195 188 180 175 166 159 156 153 146 140 132 126 124 124 122 118 116 120 121 126 136
318 321 322 313 317 317 316 317 319 321 323 327 326 318 316 312 308 298 280 263 245 229 216 208 207 209 205 202 199 195 190 183 175 169 165 162 156 151 145 141 136 132 134 132 128 133 135 138 145
311 314 311 308 311 313 311 314 314 315 317 321 322 319 314 310 304 296 282 266 250 233 219 213 209 210 208 205 204 200 197 190 183 179 174 168 163 165 163 158 155 147 148 155 155 158 156 158 161
303 306 306 306 306 305 308 307 308 309 310 315 317 317 312 307 302 297 287 267 245 235 227 217 213 214 211 209 207 204 200 196 190 185 181 177 176 176 175 172 171 168 168 174 178 182 179 175 174
297 300 297 298 299 299 304 301 304 307 305 308 309 310 310 306 301 299 292 270 244 235 229 222 219 215 214 212 210 207 204 201 197 193 191 188 189 190 188 190 185 183 184 180 184 191 190 187 185
292 291 287 291 293 296 299 297 301 303 305 306 308 306 306 306 302 298 291 272 246 236 229 227 224 217 213 213 212 210 210 208 204 201 199 200 202 203 203 201 197 199 201 198 197 199 196 196 196
288 284 284 288 288 290 293 292 294 299 303 305 307 306 305 303 302 299 294 280 252 238 232 229 230 220 215 215 214 215 214 212 209 205 205 207 210 211 214 210 209 210 209 211 212 208 204 201 203
282 281 282 281 281 283 287 289 288 292 296 300 304 305 303 303 303 296 289 279 259 241 236 234 230 221 218 218 218 217 216 214 212 208 208 211 214 214 215 216 220 212 210 216 215 208 206 206 209
277 277 277 276 277 280 283 285 283 287 291 295 299 301 301 301 299 298 291 272 259 245 239 233 226 219 220 220 218 216 216 216 215 212 213 216 219 218 219 224 219 213 214 218 216 209 210 213 215
273 273 273 273 274 278 281 282 282 285 290 293 295 297 297 298 297 295 287 279 265 248 240 232 226 219 219 221 218 218 219 220 220 218 218 219 223 222 224 229 219 215 215 212 212 214 214 215 217
269 269 270 270 272 276 280 282 283 286 290 294 295 296 296 294 294 292 286 277 265 249 237 230 225 223 222 221 219 220 221 220 220 222 223 225 226 224 222 225 217 213 211 206 205 210 212 211 213
264 264 266 269 270 274 277 280 282 286 289 291 294 294 296 294 291 288 284 277 264 249 237 230 224 221 221 219 218 219 219 218 220 224 224 224 224 223 220 218 208 206 203 201 199 201 205 209 217
260 259 258 265 270 274 273 272 279 286 288 291 294 294 294 291 287 284 281 275 260 248 242 235 225 221 221 221 219 220 220 219 222 225 225 223 222 218 216 211 201 201 201 197 197 198 202 209 218
254 253 255 261 268 270 271 275 280 283 286 290 295 295 293 289 286 283 279 272 260 253 249 239 228 222 223 223 221 219 219 220 222 224 222 219 217 215 215 212 204 199 199 193 192 195 196 204 217
250 249 252 258 266 268 272 275 280 282 284 288 293 295 292 289 288 285 276 267 262 258 253 241 230 227 221 220 220 219 219 219 222 223 221 217 216 216 213 208 202 197 195 194 194 195 200 206 209
248 248 251 258 263 267 271 275 280 281 284 287 290 292 294 293 291 287 273 260 259 255 248 237 231 225 220 219 218 217 216 218 220 221 219 213 211 210 203 199 198 197 197 198 200 202 205 206 203
247 247 250 255 261 269 272 278 283 286 286 286 288 293 295 297 293 285 270 258 253 253 242 234 230 225 223 218 217 218 217 218 218 217 217 212 206 204 201 199 199 198 199 199 200 201 201 199 196
243 246 249 253 257 266 271 275 282 285 287 286 289 293 294 297 291 280 271 261 253 251 244 235 229 225 222 219 217 216 215 213 212 212 210 207 204 202 202 200 200 200 201 202 200 196 196 194 197
239 244 248 252 257 264 273 274 278 284 284 285 291 293 293 296 290 279 268 267 256 249 241 238 230 224 221 220 218 218 215 213 211 207 205 205 204 202 201 201 202 200 199 199 196 195 194 195 201
240 244 250 253 257 265 267 271 275 281 277 280 289 293 291 291 285 278 271 265 254 248 242 240 228 221 219 217 216 216 213 210 207 204 205 205 205 204 203 202 201 200 200 201 199 198 198 203 211
239 241 248 255 258 262 266 271 273 274 276 279 285 291 291 287 279 270 267 264 257 249 243 237 227 223 219 215 212 210 208 206 205 204 205 206 206 205 203 203 203 203 201 202 204 204 205 210 218
237 235 235 242 252 260 268 270 271 275 277 281 283 286 290 286 274 264 263 262 258 245 241 236 225 220 216 212 210 208 206 206 206 205 205 207 207 206 205 204 205 204 203 204 208 211 211 216 224
234 233 234 243 250 254 266 270 267 273 276 280 279 279 282 282 271 259 256 255 256 251 243 232 224 216 213 211 208 206 206 207 207 207 208 208 209 209 207 208 207 207 207 208 212 213 216 223 233
233 235 239 241 247 255 267 276 267 264 269 271 272 274 276 274 267 255 254 249 249 246 240 232 219 212 208 207 206 206 207 208 206 206 206 207 210 210 210 210 208 209 210 211 213 217 224 231 242
237 236 239 242 245 249 259 266 262 260 261 264 268 270 271 267 262 251 249 244 244 241 234 229 223 211 207 206 205 207 207 208 208 209 210 210 211 212 214 215 212 212 214 217 219 224 231 238 248
237 238 242 246 254 253 254 260 263 258 258 259 261 263 264 261 256 251 247 242 240 236 233 229 224 213 210 208 206 207 208 209 211 212 214 214 212 214 216 216 213 215 219 223 226 230 236 245 253
Height
5899 5898 5897 5897 5898 5898 5897 5896 5894 5893 5892 5891 5889 5888 5888 5887 5888 5889 5887 5885 5885 5886 5886 5887 5888 5889 5889 5890 5891 5891 5892 5892 5892 5893 5893 5894 5894 5894 5895 5895 5895 5896 5896 5896 5896 5897 5897 5897 5897
5898 5897 5897 5897 5897 5897 5896 5894 5893 5892 5891 5890 5888 5887 5887 5886 5885 5885 5884 5884 5884 5885 5885 5886 5887 5888 5889 5890 5891 5892 5892 5892 5893 5893 5894 5894 5895 5895 5895 5896 5896 5896 5897 5897 5897 5897 5897 5897 5898
5897 5896 5897 5896 5896 5896 5895 5894 5892 5891 5890 5889 5887 5886 5886 5885 5884 5883 5883 5883 5883 5884 5884 5885 5887 5888 5889 5890 5891 5891 5892 5893 5893 5894 5894 5895 5895 5895 5896 5896 5897 5897 5897 5897 5897 5897 5898 5898 5898
5896 5896 5896 5896 5895 5894 5893 5892 5891 5890 5889 5887 5886 5885 5884 5884 5883 5882 5881 5881 5881 5882 5883 5884 5885 5887 5888 5889 5890 5891 5892 5892 5893 5893 5894 5895 5895 5896 5896 5896 5897 5897 5897 5897 5898 5898 5898 5898 5898
5894 5894 5895 5894 5893 5892 5891 5890 5889 5888 5887 5886 5885 5884 5883 5882 5881 5880 5880 5880 5880 5881 5881 5882 5884 5885 5887 5888 5889 5890 5891 5892 5892 5893 5894 5895 5895 5896 5896 5896 5897 5897 5897 5897 5898 5898 5898 5898 5898
5893 5893 5893 5893 5891 5890 5889 5889 5888 5887 5886 5885 5883 5882 5881 5880 5879 5879 5878 5878 5878 5879 5879 5880 5882 5883 5885 5886 5888 5889 5890 5891 5892 5893 5894 5894 5895 5895 5896 5896 5897 5897 5897 5897 5897 5898 5898 5898 5899
5892 5891 5891 5891 5890 5889 5888 5887 5886 5885 5884 5883 5882 5881 5879 5878 5877 5877 5876 5876 5876 5877 5878 5879 5880 5882 5883 5885 5886 5888 5889 5890 5891 5892 5893 5894 5895 5895 5896 5896 5896 5896 5897 5897 5897 5897 5898 5898 5899
5889 5890 5888 5888 5888 5887 5886 5885 5884 5883 5882 5881 5880 5879 5878 5877 5875 5875 5874 5874 5874 5875 5876 5877 5878 5880 5881 5883 5885 5886 5888 5889 5890 5891 5892 5893 5894 5894 5895 5896 5896 5896 5896 5896 5896 5897 5897 5898 5898
5886 5888 5887 5886 5886 5885 5884 5883 5882 5881 5880 5879 5878 5877 5875 5874 5873 5872 5871 5871 5871 5872 5873 5874 5876 5877 5879 5881 5883 5884 5886 5887 5889 5890 5891 5892 5893 5893 5894 5895 5895 5896 5896 5896 5896 5896 5897 5897 5898
5883 5884 5884 5883 5883 5882 5881 5881 5880 5879 5878 5876 5875 5874 5873 5871 5870 5869 5869 5868 5869 5870 5871 5872 5873 5875 5877 5878 5880 5882 5884 5885 5887 5888 5889 5891 5891 5892 5893 5894 5894 5895 5895 5895 5895 5896 5896 5897 5897
5880 5881 5880 5880 5879 5879 5878 5878 5877 5877 5876 5874 5873 5871 5870 5869 5867 5867 5866 5866 5866 5867 5868 5869 5870 5872 5874 5876 5877 5880 5882 5883 5885 5886 5888 5889 5890 5891 5892 5892 5893 5893 5894 5894 5894 5895 5895 5896 5897
5877 5877 5876 5876 5876 5876 5876 5875 5875 5874 5874 5872 5870 5869 5867 5866 5865 5864 5863 5862 5863 5864 5865 5865 5867 5869 5871 5873 5875 5877 5879 5880 5883 5884 5886 5887 5888 5889 5890 5891 5891 5892 5892 5893 5893 5894 5894 5895 5896
5873 5873 5873 5873 5873 5873 5873 5872 5872 5871 5870 5869 5868 5866 5865 5863 5862 5860 5859 5859 5859 5860 5861 5862 5863 5866 5868 5871 5873 5875 5877 5879 5880 5882 5884 5885 5887 5888 5889 5889 5890 5891 5891 5892 5892 5893 5893 5894 5895
5870 5870 5870 5870 5870 5870 5870 5870 5869 5869 5868 5866 5865 5863 5862 5860 5859 5858 5857 5856 5856 5857 5858 5858 5860 5862 5865 5868 5870 5872 5874 5876 5878 5880 5882 5883 5885 5886 5887 5888 5889 5889 5890 5891 5891 5892 5892 5893 5894
5866 5867 5867 5866 5866 5867 5867 5867 5866 5865 5864 5863 5862 5860 5858 5857 5856 5854 5853 5853 5853 5854 5855 5856 5857 5859 5862 5864 5867 5869 5871 5873 5876 5878 5879 5881 5883 5884 5885 5887 5888 5888 5889 5890 5890 5891 5892 5892 5893
5862 5863 5864 5863 5863 5863 5866 5865 5863 5862 5861 5860 5858 5857 5855 5854 5853 5851 5850 5849 5849 5850 5851 5853 5854 5856 5858 5861 5863 5866 5868 5870 5873 5875 5877 5879 5881 5882 5884 5885 5886 5887 5888 5889 5890 5890 5891 5892 5892
5859 5860 5861 5860 5859 5860 5861 5862 5860 5859 5858 5857 5855 5853 5852 5851 5850 5848 5847 5847 5846 5847 5848 5850 5851 5853 5855 5857 5860 5863 5865 5868 5870 5873 5875 5877 5879 5880 5882 5884 5885 5886 5888 5888 5889 5890 5891 5891 5892
5856 5856 5857 5857 5856 5857 5857 5858 5857 5856 5855 5854 5852 5850 5849 5848 5847 5845 5844 5843 5844 5844 5845 5846 5848 5850 5852 5854 5857 5860 5863 5865 5867 5870 5872 5874 5877 5878 5880 5882 5884 5885 5887 5887 5888 5889 5890 5891 5891
5850 5852 5853 5853 5852 5853 5854 5854 5853 5852 5852 5851 5849 5848 5846 5844 5843 5842 5841 5840 5840 5841 5842 5843 5845 5847 5849 5851 5854 5857 5860 5862 5865 5867 5870 5872 5874 5876 5878 5881 5883 5884 5885 5886 5887 5888 5889 5890 5890
5846 5848 5849 5849 5849 5850 5850 5851 5850 5849 5848 5848 5846 5845 5843 5841 5840 5838 5838 5837 5838 5838 5839 5840 5842 5844 5846 5849 5851 5854 5857 5859 5862 5864 5867 5869 5872 5874 5877 5879 5881 5883 5884 5885 5886 5887 5888 5889 5889
5842 5844 5844 5845 5845 5846 5847 5848 5847 5846 5845 5844 5843 5842 5840 5838 5837 5835 5835 5835 5835 5835 5836 5837 5839 5841 5843 5845 5848 5850 5853 5856 5859 5862 5864 5867 5870 5873 5875 5877 5879 5881 5883 5884 5885 5886 5887 5888 5889
5838 5839 5840 5841 5843 5844 5845 5846 5844 5843 5842 5841 5840 5839 5837 5835 5834 5832 5832 5832 5832 5832 5833 5834 5835 5838 5840 5843 5845 5847 5850 5853 5856 5859 5862 5865 5868 5871 5873 5876 5878 5880 5882 5883 5884 5885 5886 5887 5888
5833 5834 5836 5837 5839 5840 5841 5842 5843 5840 5839 5838 5837 5836 5834 5833 5831 5830 5830 5830 5830 5830 5830 5831 5832 5834 5837 5840 5842 5844 5847 5850 5853 5856 5860 5863 5866 5869 5871 5874 5876 5878 5880 5882 5883 5884 5885 5886 5887
5829 5831 5833 5834 5836 5838 5838 5838 5840 5837 5836 5835 5834 5832 5831 5830 5829 5828 5828 5828 5828 5828 5828 5829 5830 5832 5834 5837 5839 5841 5844 5848 5851 5854 5858 5861 5864 5867 5869 5872 5874 5876 5878 5880 5882 5883 5885 5886 5887
5825 5829 5831 5833 5834 5836 5834 5834 5836 5833 5832 5832 5831 5830 5828 5828 5827 5826 5826 5826 5826 5826 5826 5826 5827 5829 5832 5834 5836 5839 5842 5845 5849 5852 5856 5859 5862 5865 5868 5870 5873 5875 5877 5879 5880 5882 5883 5885 5885
5821 5825 5829 5831 5833 5833 5830 5830 5832 5829 5829 5828 5827 5827 5826 5825 5825 5824 5824 5824 5824 5824 5824 5824 5825 5827 5830 5832 5834 5837 5840 5843 5846 5850 5853 5857 5860 5863 5866 5868 5871 5873 5875 5877 5879 5880 5882 5883 5884
5817 5819 5824 5825 5826 5828 5828 5827 5827 5826 5825 5825 5824 5824 5823 5823 5822 5822 5822 5822 5822 5822 5822 5823 5823 5825 5827 5830 5832 5835 5838 5841 5845 5848 5851 5854 5858 5861 5863 5866 5869 5871 5873 5875 5877 5879 5880 5881 5882
5813 5816 5817 5820 5822 5824 5826 5825 5825 5823 5822 5822 5821 5821 5820 5820 5819 5819 5820 5820 5821 5821 5821 5821 5822 5824 5826 5828 5831 5833 5837 5840 5843 5846 5849 5852 5855 5858 5861 5864 5866 5869 5871 5873 5875 5877 5878 5879 5880
5808 5811 5812 5815 5817 5820 5822 5824 5820 5819 5819 5818 5818 5817 5817 5817 5817 5817 5818 5818 5819 5819 5820 5821 5821 5823 5825 5827 5829 5832 5835 5838 5841 5844 5847 5850 5853 5856 5859 5862 5864 5866 5869 5871 5873 5874 5876 5877 5877
5804 5806 5808 5811 5812 5813 5815 5820 5815 5815 5815 5815 5814 5814 5814 5814 5814 5815 5815 5816 5817 5818 5819 5820 5821 5822 5824 5826 5828 5831 5834 5837 5840 5843 5845 5848 5851 5854 5857 5859 5861 5864 5866 5868 5870 5871 5873 5874 5874